DECAYED
Showing default

ION-MK01, 46274 (Decayed)

Orbit data source: Space-Track

ION-MK01, 46274 was a payload satellite owned by D-ORBIT (IT) in LEO that was launched on Thu, 03 Sep 2020 UTC via a VEGA launch vehicle from the French Guiana (FRGUI). Payload-class satellites include a variety of spacecraft equipped with specific instruments for various scientific and technological missions. These include communications satellites like Starlink; space stations such as the ISS; scientific satellites like the Hubble; Earth observation satellites from companies like Planet Labs, Umbra, and HawkEye 360; GPS; miniature CubeSats for education and research; and military/defense satellites.

Not visible in the next 10 days
Identifier
46274, 2020-061C
Orbit
Decayed
Country
Flag of ITIT
Related business
Manufacturer
D-ORBIT
Mission
Decayed Commercial Technology
Bus & Motor
ION-SC, PM200
Mass
220 kg wet, 150 kg dry
Launch date (UTC)
2020-09-03 (6 years ago)
Launch vehicle
VEGA
Launch site
French Guiana (FRGUI)
Object type
Payload
Rocket body
Debris
Shape & HBR
Box, 0.2 m
Radar Cross Section
0.240 m², Medium (>0.1 m² and < 1m²)

Expand to show TLE details & history
Last TLE update: 2 months ago

TLE from 2 months ago
0 ION-MK01
1 46274U 20061C   26108.90635226  .05573010  24001-5  56936-3 0  9997
2 46274  97.1732 190.8876 0011766 257.0893 102.9092 16.37772736314086
Epoch: 2026-04-18T21:45Z
TLE epoch observation values (Epoch: 2026-04-18T21:45:08.835Z)
Latitude
-0°
Longitude
17.58232°
Altitude
176.72 km
Speed
7.799 km/s
True Right ascension
12h 43m 33s
True Declination
0° 00' 00"
Sunlit
Object was in full shadow at epoch
Visualization orbit readout
Latitude
Unknown
Longitude
Unknown
Altitude
Unknown
Speed
Unknown
Apparent Right ascension
Unknown
Apparent Declination
Unknown
Sunlit
N/A
Visualization observer readout
Local Sidereal Time
23:00:20
Azimuth
Unknown
Elevation
Unknown
Doppler factor
Unknown
Orbital elements
Apogee altitude
176.237 km
Perigee altitude
160.832 km
Semi-major axis
6,546.671 km
Eccentricity
0.00118
Inclination
97.1732°
RAAN
190.8876°
Arg. of periapsis
257.0893°
True anomaly
103.04058°
Mean anomaly
102.9092°
Eccentric anomaly
102.97489°
Mean motion
4.09744 °/min
Orbital period
87.86 mins
BSTAR
0.00056936
Loading maneuver chart data...
Computing Atmospheric mass density...
Loading historical data...
Loading historical data...
Loading historical data...
Loading historical data...
Loading historical data...
Loading historical data...
Loading historical data...

Documentation

Showing up to 5 results
|